Regional Weather Roundup
Issued by NWS Charleston, WV

Home | Current Version | Previous Version | Graphics & Text | Print | Product List | Glossary On
Versions: 1 2 3 4 5 6 7 8 9 10 11 12 13 14 15 16 17 18 19 20 21 22 23 24 25 26 27
000
ASUS41 KRLX 251810
RWRRLX
West Virginia Regional Weather Roundup
National Weather Service Charleston WV
200 PM EDT TUE APR 25 2017

Note: "fair" indicates few or no clouds below 12,000 feet with no
significant weather and/or obstructions to visibility.

WVZ003-251900-
Northern Panhandle of West Virginia

CITY           SKY/WX    TMP DP  RH WIND       PRES   REMARKS
WHEELING       CLOUDY    61  51  70 E9        29.84F
$$

WVZ009-251900-
Northwest West Virginia

CITY           SKY/WX    TMP DP  RH WIND       PRES   REMARKS
PARKERSBURG    CLOUDY    66  53  63 NE10      29.82F
$$

WVZ006-251900-
Western West Virginia

CITY           SKY/WX    TMP DP  RH WIND       PRES   REMARKS
HUNTINGTON     PTSUNNY   68  55  63 NE8       29.77F
$$

WVZ015-251900-
West Central West Virginia

CITY           SKY/WX    TMP DP  RH WIND       PRES   REMARKS
CHARLESTON     CLOUDY    62  55  77 N3        29.78F
$$

WVZ022-031-251900-
North Central West Virginia

CITY           SKY/WX    TMP DP  RH WIND       PRES   REMARKS
CLARKSBURG     CLOUDY    62  51  67 NE12      29.80
MORGANTOWN     CLOUDY    63  52  67 NE10      29.83F
$$

WVZ025-035-042-045-251900-
Southern West Virginia

CITY           SKY/WX    TMP DP  RH WIND       PRES   REMARKS
BECKLEY        CLOUDY    64  53  67 N5        29.77F
LOGAN          CLOUDY    61  55  82 CALM      29.78F
BLUEFIELD      CLOUDY    59  52  77 N6        29.79F
LEWISBURG      CLOUDY    63  53  68 E10G20    29.77S
$$

WVZ047-251900-
Northern Mountains of West Virginia

CITY           SKY/WX    TMP DP  RH WIND       PRES   REMARKS
ELKINS         CLOUDY    62  50  64 SW3       29.80F
$$

WVZ052-251900-
Eastern Panhandle of West Virginia

CITY           SKY/WX    TMP DP  RH WIND       PRES   REMARKS
MARTINSBURG    LGT RAIN  54  52  93 N12G21    29.82F FOG
PETERSBURG     LGT RAIN  55  53  94 N5        29.85F
$$




USA.gov is the U.S. government's official web portal to all federal, state and local government web resources and services.